| time (UTC) | temp F | wind direction | speed MPH | gust MPH | rain 1hr in | rain 24hr in | rain mn in | humidity % | barometer mb |
| 20260906101551 | 69 | 92 | 0.0 | 0.0 | 0.00 | 0.00 | 0.00 | 99 | 996.2 |
| 20260906101045 | 69 | 92 | 0.0 | 0.0 | 0.00 | 0.00 | 0.00 | 99 | 995.8 |
| 20260906100541 | 69 | 92 | 0.0 | 0.0 | 0.00 | 0.00 | 0.00 | 99 | 995.7 |
| 20260906100041 | 70 | 98 | 0.0 | 0.0 | 0.00 | 0.00 | 0.00 | 99 | 995.8 |
| 20260906095535 | 70 | 98 | 0.0 | 0.0 | 0.00 | 0.00 | 0.00 | 99 | 995.8 |
| 20260906095031 | 70 | 92 | 0.0 | 0.0 | 0.00 | 0.00 | 0.00 | 99 | 995.7 |
| 20260906094530 | 70 | 88 | 0.0 | 0.0 | 0.00 | 0.00 | 0.00 | 99 | 995.8 |
| 20260906094021 | 70 | 93 | 0.0 | 0.0 | 0.00 | 0.00 | 0.00 | 99 | 995.7 |
| 20260906093516 | 70 | 94 | 0.0 | 0.0 | 0.00 | 0.00 | 0.00 | 99 | 995.5 |
| 20260906093010 | 70 | 90 | 0.0 | 0.0 | 0.00 | 0.00 | 0.00 | 99 | 995.7 |
| 20260906092505 | 70 | 90 | 0.0 | 0.0 | 0.00 | 0.00 | 0.00 | 99 | 995.6 |
| 20260906092000 | 70 | 86 | 0.0 | 0.0 | 0.00 | 0.00 | 0.00 | 99 | 995.6 |
| 20260906091456 | 70 | 104 | 1.0 | 1.0 | 0.00 | 0.00 | 0.00 | 99 | 995.6 |
| 20260906090953 | 70 | 97 | 0.0 | 0.0 | 0.00 | 0.00 | 0.00 | 99 | 995.4 |
| 20260906090448 | 70 | 98 | 0.0 | 0.0 | 0.00 | 0.00 | 0.00 | 99 | 995.4 |
| 20260906085947 | 70 | 98 | 0.0 | 0.0 | 0.00 | 0.00 | 0.00 | 99 | 995.7 |
| 20260906085446 | 70 | 93 | 0.0 | 0.0 | 0.00 | 0.00 | 0.00 | 99 | 995.3 |
| 20260906084946 | 70 | 97 | 0.0 | 0.0 | 0.00 | 0.00 | 0.00 | 99 | 995.4 |
| 20260906084441 | 70 | 102 | 0.0 | 1.0 | 0.00 | 0.00 | 0.00 | 99 | 995.4 |
| 20260906083939 | 70 | 122 | 1.0 | 1.0 | 0.00 | 0.00 | 0.00 | 99 | 995.2 |
| 20260906083436 | 70 | 99 | 0.0 | 0.0 | 0.00 | 0.00 | 0.00 | 99 | 995.2 |
| 20260906082934 | 70 | 101 | 0.0 | 0.0 | 0.00 | 0.00 | 0.00 | 99 | 995.2 |
| 20260906082430 | 70 | 110 | 0.0 | 1.0 | 0.00 | 0.00 | 0.00 | 99 | 995.1 |
| 20260906081926 | 70 | 140 | 1.0 | 2.0 | 0.00 | 0.00 | 0.00 | 99 | 995.1 |
| 20260906081421 | 71 | 123 | 1.0 | 1.0 | 0.00 | 0.00 | 0.00 | 99 | 995.1 |
| 20260906080917 | 70 | 95 | 0.0 | 0.0 | 0.00 | 0.00 | 0.00 | 99 | 994.8 |
| 20260906080414 | 70 | 90 | 0.0 | 0.0 | 0.00 | 0.00 | 0.00 | 99 | 995.0 |
| 20260906075913 | 71 | 88 | 0.0 | 0.0 | 0.00 | 0.00 | 0.00 | 99 | 994.8 |
| 20260906075408 | 71 | 91 | 0.0 | 0.0 | 0.00 | 0.00 | 0.00 | 99 | 995.0 |
| 20260906074903 | 70 | 81 | 0.0 | 1.0 | 0.00 | 0.00 | 0.00 | 99 | 994.9 |
| 20260906074402 | 71 | 84 | 0.0 | 0.0 | 0.00 | 0.00 | 0.00 | 99 | 995.1 |
| 20260906073901 | 71 | 117 | 0.0 | 1.0 | 0.00 | 0.00 | 0.00 | 99 | 994.9 |
| 20260906073356 | 71 | 100 | 0.0 | 0.0 | 0.00 | 0.00 | 0.00 | 99 | 995.2 |
| 20260906072853 | 71 | 100 | 0.0 | 1.0 | 0.00 | 0.00 | 0.00 | 99 | 995.1 |
| 20260906072348 | 71 | 92 | 0.0 | 0.0 | 0.00 | 0.00 | 0.00 | 99 | 995.3 |
| 20260906071845 | 71 | 91 | 0.0 | 0.0 | 0.00 | 0.00 | 0.00 | 99 | 995.1 |
| 20260906071345 | 71 | 90 | 0.0 | 0.0 | 0.00 | 0.00 | 0.00 | 99 | 995.1 |
| 20260906070841 | 71 | 96 | 0.0 | 0.0 | 0.00 | 0.00 | 0.00 | 99 | 995.3 |
| 20260906070337 | 71 | 96 | 0.0 | 0.0 | 0.00 | 0.00 | 0.00 | 99 | 995.3 |
| 20260906065832 | 71 | 87 | 0.0 | 0.0 | 0.00 | 0.00 | 0.00 | 99 | 995.0 |
| 20260906065326 | 71 | 99 | 0.0 | 0.0 | 0.00 | 0.00 | 0.00 | 99 | 995.2 |
| 20260906064822 | 71 | 99 | 0.0 | 0.0 | 0.00 | 0.00 | 0.00 | 99 | 995.5 |
| 20260906064318 | 71 | 99 | 0.0 | 0.0 | 0.00 | 0.00 | 0.00 | 99 | 995.6 |
| 20260906063813 | 71 | 99 | 0.0 | 0.0 | 0.00 | 0.00 | 0.00 | 99 | 995.4 |
| 20260906063309 | 71 | 99 | 0.0 | 0.0 | 0.00 | 0.00 | 0.00 | 99 | 995.6 |
| 20260906062809 | 71 | 99 | 0.0 | 0.0 | 0.00 | 0.00 | 0.00 | 99 | 995.7 |
| 20260906062308 | 71 | 99 | 0.0 | 0.0 | 0.00 | 0.00 | 0.00 | 99 | 995.4 |
| 20260906061804 | 71 | 99 | 0.0 | 0.0 | 0.00 | 0.00 | 0.00 | 99 | 995.7 |
| 20260906061300 | 71 | 99 | 0.0 | 0.0 | 0.00 | 0.00 | 0.00 | 99 | 995.6 |
| 20260906060755 | 71 | 99 | 0.0 | 0.0 | 0.00 | 0.00 | 0.00 | 99 | 995.5 |
| 20260906060252 | 71 | 95 | 0.0 | 0.0 | 0.00 | 0.00 | 0.00 | 99 | 995.7 |
| 20260906055748 | 71 | 85 | 0.0 | 0.0 | 0.00 | 0.00 | 0.00 | 99 | 995.6 |
| 20260906055243 | 71 | 88 | 0.0 | 0.0 | 0.00 | 0.00 | 0.00 | 99 | 995.5 |
| 20260906054738 | 71 | 88 | 0.0 | 0.0 | 0.00 | 0.00 | 0.00 | 99 | 995.9 |
| 20260906054233 | 71 | 87 | 0.0 | 0.0 | 0.00 | 0.00 | 0.00 | 99 | 995.8 |
| 20260906053730 | 71 | 88 | 0.0 | 1.0 | 0.00 | 0.00 | 0.00 | 99 | 995.9 |
| 20260906053226 | 72 | 88 | 0.0 | 0.0 | 0.00 | 0.00 | 0.00 | 99 | 995.8 |
| 20260906052720 | 72 | 97 | 0.0 | 0.0 | 0.00 | 0.00 | 0.00 | 99 | 995.7 |
| 20260906052217 | 72 | 98 | 0.0 | 0.0 | 0.00 | 0.00 | 0.00 | 99 | 995.6 |
| 20260906051714 | 71 | 99 | 0.0 | 0.0 | 0.00 | 0.00 | 0.00 | 99 | 995.7 |
| 20260906051213 | 72 | 91 | 0.0 | 0.0 | 0.00 | 0.00 | 0.00 | 99 | 995.8 |
| 20260906050708 | 71 | 90 | 0.0 | 0.0 | 0.00 | 0.00 | 0.00 | 99 | 995.8 |
| 20260906050203 | 72 | 91 | 0.0 | 0.0 | 0.00 | 0.00 | 0.00 | 99 | 996.0 |
| 20260906045702 | 72 | 95 | 0.0 | 0.0 | 0.00 | 0.00 | 0.00 | 99 | 995.9 |
| 20260906045157 | 72 | 96 | 0.0 | 0.0 | 0.00 | 0.00 | 0.00 | 99 | 996.1 |
| 20260906044653 | 72 | 95 | 0.0 | 0.0 | 0.00 | 0.00 | 0.00 | 99 | 996.1 |
| 20260906044148 | 72 | 95 | 0.0 | 0.0 | 0.00 | 0.00 | 0.00 | 99 | 996.3 |
| 20260906043644 | 72 | 96 | 0.0 | 0.0 | 0.00 | 0.00 | 0.00 | 99 | 996.2 |
| 20260906043140 | 72 | 92 | 0.0 | 0.0 | 0.00 | 0.00 | 0.00 | 99 | 996.2 |
| 20260906042639 | 72 | 88 | 0.0 | 0.0 | 0.00 | 0.00 | 0.00 | 99 | 996.4 |
| 20260906042133 | 72 | 87 | 0.0 | 0.0 | 0.00 | 0.00 | 0.00 | 99 | 996.2 |
| 20260906041629 | 72 | 86 | 0.0 | 0.0 | 0.00 | 0.00 | 0.00 | 99 | 996.3 |
| 20260906041130 | 72 | 86 | 0.0 | 0.0 | 0.00 | 0.00 | 0.00 | 99 | 996.3 |
| 20260906040625 | 72 | 86 | 0.0 | 0.0 | 0.00 | 0.00 | 0.00 | 99 | 996.3 |
| 20260906040120 | 72 | 88 | 0.0 | 0.0 | 0.00 | 0.00 | 0.00 | 99 | 996.3 |
| 20260906035615 | 72 | 91 | 0.0 | 0.0 | 0.00 | 0.69 | 0.69 | 99 | 996.3 |
| 20260906035112 | 72 | 96 | 0.0 | 0.0 | 0.00 | 0.69 | 0.69 | 99 | 996.6 |
| 20260906034611 | 72 | 97 | 1.0 | 1.0 | 0.00 | 0.69 | 0.69 | 99 | 996.3 |
| 20260906034106 | 72 | 91 | 0.0 | 0.0 | 0.00 | 0.69 | 0.69 | 99 | 996.3 |
| 20260906033602 | 72 | 93 | 0.0 | 0.0 | 0.00 | 0.69 | 0.69 | 99 | 996.5 |
| 20260906033057 | 73 | 99 | 0.0 | 0.0 | 0.00 | 0.69 | 0.69 | 99 | 996.5 |
| 20260906032554 | 73 | 99 | 0.0 | 0.0 | 0.00 | 0.69 | 0.69 | 99 | 996.5 |
| 20260906032053 | 73 | 99 | 0.0 | 0.0 | 0.00 | 0.69 | 0.69 | 99 | 996.6 |
| 20260906031549 | 73 | 99 | 0.0 | 0.0 | 0.00 | 0.69 | 0.69 | 99 | 996.3 |
| 20260906031044 | 72 | 91 | 0.0 | 0.0 | 0.00 | 0.69 | 0.69 | 99 | 996.4 |
| 20260906030544 | 72 | 90 | 0.0 | 0.0 | 0.00 | 0.69 | 0.69 | 99 | 996.4 |
| 20260906030044 | 72 | 94 | 0.0 | 0.0 | 0.00 | 0.69 | 0.69 | 99 | 996.3 |
| 20260906025543 | 72 | 94 | 0.0 | 0.0 | 0.00 | 0.69 | 0.69 | 99 | 996.4 |
| 20260906025042 | 73 | 96 | 0.0 | 0.0 | 0.00 | 0.69 | 0.69 | 99 | 996.2 |
| 20260906024538 | 73 | 103 | 0.0 | 1.0 | 0.00 | 0.69 | 0.69 | 99 | 996.2 |
| 20260906024037 | 72 | 93 | 0.0 | 0.0 | 0.00 | 0.69 | 0.69 | 99 | 996.2 |
| 20260906023533 | 72 | 93 | 0.0 | 0.0 | 0.00 | 0.69 | 0.69 | 99 | 996.1 |
| 20260906023028 | 72 | 91 | 0.0 | 0.0 | 0.00 | 0.69 | 0.69 | 99 | 996.0 |
| 20260906022523 | 73 | 95 | 0.0 | 0.0 | 0.00 | 0.69 | 0.69 | 99 | 996.2 |
| 20260906022019 | 73 | 110 | 0.0 | 1.0 | 0.00 | 0.69 | 0.69 | 99 | 996.5 |
| 20260906021515 | 73 | 92 | 0.0 | 0.0 | 0.00 | 0.69 | 0.69 | 99 | 996.4 |
| 20260906021008 | 73 | 93 | 0.0 | 0.0 | 0.00 | 0.69 | 0.69 | 99 | 996.2 |
| 20260906020507 | 73 | 94 | 0.0 | 0.0 | 0.00 | 0.69 | 0.69 | 99 | 996.2 |
| 20260906020007 | 73 | 119 | 1.0 | 1.0 | 0.00 | 0.69 | 0.69 | 99 | 996.4 |
| 20260906015506 | 73 | 119 | 1.0 | 1.0 | 0.00 | 0.69 | 0.69 | 99 | 996.4 |
| 20260906015007 | 73 | 97 | 1.0 | 1.0 | 0.00 | 0.69 | 0.69 | 99 | 996.3 |
| 20260906014501 | 73 | 109 | 1.0 | 1.0 | 0.00 | 0.69 | 0.69 | 99 | 996.2 |
| 20260906013957 | 73 | 121 | 1.0 | 1.0 | 0.00 | 0.69 | 0.69 | 99 | 996.3 |
| 20260906013452 | 73 | 109 | 1.0 | 1.0 | 0.00 | 0.69 | 0.69 | 99 | 996.4 |
| 20260906012948 | 73 | 99 | 0.0 | 0.0 | 0.00 | 0.69 | 0.69 | 99 | 996.1 |
| 20260906012442 | 73 | 90 | 0.0 | 0.0 | 0.00 | 0.69 | 0.69 | 99 | 996.1 |
| 20260906011942 | 73 | 98 | 0.0 | 0.0 | 0.00 | 0.69 | 0.69 | 99 | 996.1 |
| 20260906011437 | 73 | 113 | 1.0 | 1.0 | 0.00 | 0.69 | 0.69 | 99 | 996.2 |
| 20260906010932 | 73 | 139 | 1.0 | 2.0 | 0.00 | 0.69 | 0.69 | 99 | 996.0 |
| 20260906010428 | 73 | 109 | 1.0 | 1.0 | 0.00 | 0.69 | 0.69 | 99 | 996.0 |
| 20260906005924 | 73 | 106 | 0.0 | 1.0 | 0.00 | 0.69 | 0.69 | 99 | 995.8 |
| 20260906005423 | 73 | 94 | 0.0 | 0.0 | 0.00 | 0.69 | 0.69 | 99 | 995.9 |
| 20260906004922 | 73 | 92 | 0.0 | 0.0 | 0.00 | 0.69 | 0.69 | 99 | 995.7 |
| 20260906004416 | 73 | 93 | 0.0 | 0.0 | 0.00 | 0.69 | 0.69 | 99 | 995.9 |
| 20260906003912 | 73 | 92 | 0.0 | 0.0 | 0.00 | 0.69 | 0.69 | 99 | 995.8 |
| 20260906003407 | 73 | 92 | 0.0 | 0.0 | 0.00 | 0.69 | 0.69 | 99 | 996.0 |
| 20260906002902 | 74 | 89 | 0.0 | 0.0 | 0.00 | 0.69 | 0.69 | 99 | 995.9 |
| 20260906002402 | 73 | 89 | 0.0 | 0.0 | 0.00 | 0.69 | 0.69 | 99 | 995.6 |
| 20260906001857 | 74 | 95 | 0.0 | 0.0 | 0.00 | 0.69 | 0.69 | 99 | 995.7 |
| 20260906001354 | 74 | 95 | 0.0 | 0.0 | 0.00 | 0.69 | 0.69 | 99 | 995.7 |
| 20260906000853 | 74 | 94 | 1.0 | 1.0 | 0.00 | 0.69 | 0.69 | 99 | 995.3 |
| 20260906000355 | 74 | 94 | 0.0 | 0.0 | 0.00 | 0.69 | 0.69 | 99 | 995.6 |
| 20260905235848 | 74 | 87 | 0.0 | 0.0 | 0.00 | 0.69 | 0.69 | 99 | 995.4 |
| 20260905235343 | 74 | 81 | 1.0 | 1.0 | 0.00 | 0.69 | 0.69 | 99 | 995.3 |
| 20260905234838 | 74 | 96 | 0.0 | 1.0 | 0.00 | 0.69 | 0.69 | 99 | 995.1 |
| 20260905234333 | 74 | 98 | 0.0 | 0.0 | 0.00 | 0.69 | 0.69 | 99 | 995.1 |
| 20260905233828 | 75 | 100 | 1.0 | 1.0 | 0.00 | 0.69 | 0.69 | 99 | 994.9 |
| 20260905233323 | 75 | 109 | 1.0 | 1.0 | 0.00 | 0.69 | 0.69 | 99 | 994.9 |
| 20260905232822 | 75 | 100 | 0.0 | 1.0 | 0.00 | 0.69 | 0.69 | 99 | 994.8 |
| 20260905232319 | 75 | 130 | 0.0 | 1.0 | 0.00 | 0.69 | 0.69 | 99 | 995.0 |
| 20260905231814 | 75 | 101 | 1.0 | 1.0 | 0.00 | 0.69 | 0.69 | 99 | 995.0 |
| 20260905231309 | 75 | 101 | 0.0 | 1.0 | 0.00 | 0.69 | 0.69 | 99 | 995.0 |
| 20260905230805 | 75 | 95 | 0.0 | 0.0 | 0.00 | 0.69 | 0.69 | 99 | 995.0 |
| 20260905230303 | 74 | 95 | 0.0 | 0.0 | 0.00 | 0.69 | 0.69 | 99 | 995.0 |
| 20260905225803 | 74 | 93 | 0.0 | 0.0 | 0.00 | 0.69 | 0.69 | 99 | 995.3 |
| 20260905225258 | 74 | 102 | 0.0 | 0.0 | 0.00 | 0.69 | 0.69 | 99 | 995.1 |
| 20260905224757 | 74 | 128 | 1.0 | 1.0 | 0.00 | 0.69 | 0.69 | 99 | 995.2 |
| 20260905224253 | 74 | 104 | 0.0 | 0.0 | 0.00 | 0.69 | 0.69 | 99 | 995.0 |
| 20260905223748 | 74 | 87 | 0.0 | 0.0 | 0.00 | 0.69 | 0.69 | 99 | 995.0 |
| 20260905223246 | 74 | 96 | 0.0 | 0.0 | 0.00 | 0.69 | 0.69 | 99 | 994.8 |
| 20260905222741 | 73 | 96 | 0.0 | 0.0 | 0.00 | 0.69 | 0.69 | 99 | 994.9 |
| 20260905222240 | 74 | 98 | 0.0 | 0.0 | 0.00 | 0.69 | 0.69 | 99 | 995.0 |
| 20260905221736 | 74 | 89 | 0.0 | 1.0 | 0.00 | 0.69 | 0.69 | 99 | 995.1 |
| 20260905221233 | 73 | 85 | 0.0 | 0.0 | 0.00 | 0.69 | 0.69 | 99 | 995.3 |
| 20260905220728 | 73 | 156 | 2.0 | 2.0 | 0.00 | 0.69 | 0.69 | 99 | 995.2 |
| 20260905220224 | 74 | 82 | 1.0 | 1.0 | 0.00 | 0.69 | 0.69 | 99 | 995.2 |
| 20260905215723 | 74 | 131 | 1.0 | 1.0 | 0.00 | 0.69 | 0.69 | 99 | 995.2 |
| 20260905215219 | 74 | 95 | 0.0 | 0.0 | 0.00 | 0.69 | 0.69 | 99 | 995.4 |
| 20260905214715 | 74 | 79 | 0.0 | 0.0 | 0.00 | 0.69 | 0.69 | 99 | 995.4 |
| 20260905214210 | 73 | 93 | 0.0 | 1.0 | 0.00 | 0.69 | 0.69 | 99 | 995.5 |
| 20260905213705 | 74 | 140 | 1.0 | 2.0 | 0.00 | 0.69 | 0.69 | 99 | 995.6 |
| 20260905213201 | 74 | 95 | 0.0 | 0.0 | 0.00 | 0.69 | 0.69 | 99 | 995.5 |
| 20260905212656 | 74 | 104 | 3.0 | 3.0 | 0.00 | 0.69 | 0.69 | 99 | 995.7 |
| 20260905212155 | 74 | 111 | 1.0 | 1.0 | 0.00 | 0.69 | 0.69 | 99 | 995.7 |
| 20260905211650 | 74 | 110 | 0.0 | 1.0 | 0.00 | 0.69 | 0.69 | 99 | 995.3 |
| 20260905211146 | 73 | 64 | 1.0 | 2.0 | 0.00 | 0.69 | 0.69 | 99 | 995.8 |
| 20260905210643 | 73 | 68 | 1.0 | 1.0 | 0.00 | 0.69 | 0.69 | 99 | 995.5 |
| 20260905210142 | 73 | 85 | 0.0 | 0.0 | 0.00 | 0.69 | 0.69 | 99 | 995.6 |
| 20260905205641 | 73 | 94 | 0.0 | 0.0 | 0.00 | 0.69 | 0.69 | 99 | 995.7 |
| 20260905205136 | 73 | 86 | 0.0 | 0.0 | 0.00 | 0.69 | 0.69 | 99 | 995.6 |
| 20260905204635 | 74 | 82 | 1.0 | 1.0 | 0.00 | 0.69 | 0.69 | 99 | 995.8 |
| 20260905204131 | 73 | 82 | 1.0 | 1.0 | 0.00 | 0.69 | 0.69 | 99 | 995.6 |
| 20260905203631 | 73 | 88 | 0.0 | 1.0 | 0.00 | 0.69 | 0.69 | 99 | 995.6 |
| 20260905203126 | 73 | 107 | 1.0 | 1.0 | 0.00 | 0.69 | 0.69 | 99 | 995.5 |
| 20260905202622 | 73 | 94 | 1.0 | 1.0 | 0.00 | 0.69 | 0.69 | 99 | 995.4 |
| 20260905202117 | 73 | 81 | 0.0 | 0.0 | 0.00 | 0.69 | 0.69 | 99 | 995.3 |
| 20260905201613 | 73 | 84 | 0.0 | 0.0 | 0.00 | 0.69 | 0.69 | 99 | 995.2 |
| 20260905201112 | 72 | 69 | 1.0 | 1.0 | 0.00 | 0.69 | 0.69 | 99 | 995.1 |
| 20260905200608 | 72 | 111 | 1.0 | 1.0 | 0.00 | 0.69 | 0.69 | 99 | 995.1 |
| 20260905195601 | 71 | 87 | 0.0 | 0.0 | 0.00 | 0.69 | 0.69 | 99 | 995.1 |
| 20260905195057 | 71 | 123 | 1.0 | 1.0 | 0.00 | 0.69 | 0.69 | 99 | 995.1 |
| 20260905194556 | 71 | 76 | 1.0 | 1.0 | 0.00 | 0.69 | 0.69 | 99 | 995.2 |
| 20260905194056 | 71 | 77 | 0.0 | 0.0 | 0.00 | 0.69 | 0.69 | 99 | 995.4 |
| 20260905193551 | 71 | 87 | 0.0 | 0.0 | 0.05 | 0.69 | 0.69 | 99 | 995.2 |
| 20260905193046 | 72 | 85 | 0.0 | 0.0 | 0.17 | 0.69 | 0.69 | 99 | 995.4 |
| 20260905192541 | 72 | 81 | 1.0 | 1.0 | 0.50 | 0.68 | 0.68 | 99 | 995.7 |
| 20260905192038 | 71 | 56 | 1.0 | 1.0 | 0.61 | 0.66 | 0.66 | 99 | 996.4 |
| 20260905191536 | 71 | 110 | 0.0 | 1.0 | 1.16 | 0.62 | 0.62 | 99 | 996.5 |
| 20260905191036 | 71 | 67 | 0.0 | 1.0 | 3.17 | 0.56 | 0.56 | 99 | 997.3 |
| 20260905190533 | 71 | 64 | 2.0 | 2.0 | 2.46 | 0.41 | 0.41 | 98 | 998.6 |
| 20260905190027 | 79 | 61 | 5.0 | 8.0 | 0.54 | 0.09 | 0.09 | 87 | 998.9 |
| 20260905185527 | 89 | 97 | 5.0 | 10.0 | 0.00 | 0.00 | 0.00 | 64 | 997.5 |
| 20260905185026 | 96 | 82 | 6.0 | 8.0 | 0.00 | 0.00 | 0.00 | 56 | 996.8 |
| 20260905184521 | 97 | 94 | 0.0 | 0.0 | 0.00 | 0.00 | 0.00 | 57 | 995.6 |
| 20260905184020 | 97 | 96 | 0.0 | 1.0 | 0.00 | 0.00 | 0.00 | 57 | 995.3 |
| 20260905183520 | 98 | 78 | 1.0 | 1.0 | 0.00 | 0.00 | 0.00 | 52 | 995.1 |
| 20260905183015 | 97 | 125 | 2.0 | 2.0 | 0.00 | 0.00 | 0.00 | 58 | 995.0 |
| 20260905182514 | 100 | 89 | 1.0 | 1.0 | 0.00 | 0.00 | 0.00 | 53 | 995.2 |
| 20260905182009 | 101 | 90 | 1.0 | 1.0 | 0.00 | 0.00 | 0.00 | 52 | 995.4 |
| 20260905181510 | 100 | 89 | 2.0 | 2.0 | 0.00 | 0.00 | 0.00 | 53 | 995.3 |
| 20260905181009 | 98 | 97 | 0.0 | 0.0 | 0.00 | 0.00 | 0.00 | 56 | 995.6 |
| 20260905180504 | 98 | 95 | 1.0 | 1.0 | 0.00 | 0.00 | 0.00 | 56 | 995.4 |
| 20260905175959 | 98 | 101 | 0.0 | 0.0 | 0.00 | 0.00 | 0.00 | 55 | 995.7 |
| 20260905175458 | 98 | 87 | 1.0 | 1.0 | 0.00 | 0.00 | 0.00 | 54 | 995.8 |
| 20260905174954 | 98 | 99 | 3.0 | 5.0 | 0.00 | 0.00 | 0.00 | 53 | 995.8 |
| 20260905174455 | 99 | 60 | 1.0 | 2.0 | 0.00 | 0.00 | 0.00 | 53 | 996.0 |
| 20260905173951 | 98 | 93 | 1.0 | 2.0 | 0.00 | 0.00 | 0.00 | 55 | 995.9 |
| 20260905173447 | 99 | 110 | 1.0 | 1.0 | 0.00 | 0.00 | 0.00 | 54 | 996.2 |
| 20260905172942 | 97 | 103 | 1.0 | 2.0 | 0.00 | 0.00 | 0.00 | 56 | 996.2 |
| 20260905172440 | 97 | 61 | 1.0 | 2.0 | 0.00 | 0.00 | 0.00 | 54 | 996.5 |
| 20260905171936 | 99 | 104 | 2.0 | 2.0 | 0.00 | 0.00 | 0.00 | 55 | 996.4 |
| 20260905171433 | 96 | 39 | 3.0 | 3.0 | 0.00 | 0.00 | 0.00 | 56 | 996.5 |
| 20260905170929 | 98 | 106 | 1.0 | 1.0 | 0.00 | 0.00 | 0.00 | 55 | 996.5 |
| 20260905170424 | 100 | 94 | 2.0 | 2.0 | 0.00 | 0.00 | 0.00 | 54 | 996.4 |
| 20260905165924 | 97 | 87 | 1.0 | 2.0 | 0.00 | 0.00 | 0.00 | 57 | 996.5 |
| 20260905165419 | 97 | 88 | 1.0 | 1.0 | 0.00 | 0.00 | 0.00 | 58 | 996.8 |
| 20260905164915 | 96 | 150 | 1.0 | 2.0 | 0.00 | 0.00 | 0.00 | 57 | 997.0 |
| 20260905164415 | 99 | 78 | 2.0 | 3.0 | 0.00 | 0.00 | 0.00 | 58 | 996.9 |
| 20260905163915 | 98 | 59 | 0.0 | 1.0 | 0.00 | 0.00 | 0.00 | 54 | 997.0 |
| 20260905163412 | 98 | 100 | 1.0 | 1.0 | 0.00 | 0.00 | 0.00 | 59 | 997.0 |
| 20260905162907 | 96 | 102 | 0.0 | 0.0 | 0.00 | 0.00 | 0.00 | 60 | 997.0 |
| 20260905162402 | 96 | 112 | 2.0 | 2.0 | 0.00 | 0.00 | 0.00 | 60 | 997.0 |
| 20260905161857 | 94 | 101 | 1.0 | 2.0 | 0.00 | 0.00 | 0.00 | 62 | 997.1 |
| 20260905161356 | 95 | 112 | 1.0 | 1.0 | 0.00 | 0.00 | 0.00 | 61 | 997.3 |
| 20260905160854 | 95 | 110 | 1.0 | 1.0 | 0.00 | 0.00 | 0.00 | 62 | 997.3 |
| 20260905160343 | 95 | 105 | 1.0 | 1.0 | 0.00 | 0.00 | 0.00 | 63 | 997.5 |
| 20260905155843 | 96 | 166 | 2.0 | 2.0 | 0.00 | 0.00 | 0.00 | 61 | 997.5 |
| 20260905155337 | 97 | 100 | 1.0 | 1.0 | 0.00 | 0.00 | 0.00 | 58 | 997.3 |
| 20260905154836 | 95 | 93 | 0.0 | 0.0 | 0.00 | 0.00 | 0.00 | 63 | 997.6 |
| 20260905154332 | 93 | 103 | 0.0 | 1.0 | 0.00 | 0.00 | 0.00 | 66 | 997.3 |
| 20260905153827 | 92 | 105 | 0.0 | 1.0 | 0.00 | 0.00 | 0.00 | 67 | 997.5 |
| 20260905153324 | 92 | 343 | 2.0 | 2.0 | 0.00 | 0.00 | 0.00 | 68 | 997.2 |
| 20260905152823 | 92 | 107 | 1.0 | 1.0 | 0.00 | 0.00 | 0.00 | 70 | 997.5 |
| 20260905152322 | 93 | 97 | 1.0 | 1.0 | 0.00 | 0.00 | 0.00 | 69 | 997.5 |
| 20260905151818 | 92 | 110 | 1.0 | 2.0 | 0.00 | 0.00 | 0.00 | 70 | 997.6 |
| 20260905151313 | 91 | 102 | 1.0 | 2.0 | 0.00 | 0.00 | 0.00 | 70 | 997.6 |
| 20260905150813 | 92 | 161 | 2.0 | 2.0 | 0.00 | 0.00 | 0.00 | 71 | 997.4 |
| 20260905150314 | 93 | 56 | 2.0 | 2.0 | 0.00 | 0.00 | 0.00 | 68 | 997.4 |
| 20260905145811 | 92 | 98 | 1.0 | 1.0 | 0.00 | 0.00 | 0.00 | 71 | 997.6 |
| 20260905145310 | 91 | 106 | 0.0 | 1.0 | 0.00 | 0.00 | 0.00 | 72 | 997.6 |
| 20260905144809 | 92 | 72 | 1.0 | 1.0 | 0.00 | 0.00 | 0.00 | 69 | 997.5 |
| 20260905144306 | 90 | 103 | 0.0 | 1.0 | 0.00 | 0.00 | 0.00 | 74 | 997.7 |
| 20260905143804 | 89 | 105 | 1.0 | 1.0 | 0.00 | 0.00 | 0.00 | 74 | 997.5 |
| 20260905143258 | 89 | 98 | 0.0 | 1.0 | 0.00 | 0.00 | 0.00 | 74 | 997.7 |
| 20260905142757 | 89 | 103 | 4.0 | 6.0 | 0.00 | 0.00 | 0.00 | 75 | 997.6 |
| 20260905142251 | 88 | 115 | 1.0 | 2.0 | 0.00 | 0.00 | 0.00 | 77 | 997.6 |
| 20260905141748 | 87 | 233 | 3.0 | 3.0 | 0.00 | 0.00 | 0.00 | 77 | 997.5 |
| 20260905141243 | 88 | 144 | 1.0 | 2.0 | 0.00 | 0.00 | 0.00 | 77 | 997.6 |
| 20260905140738 | 88 | 103 | 1.0 | 1.0 | 0.00 | 0.00 | 0.00 | 77 | 997.7 |
| 20260905140233 | 87 | 91 | 0.0 | 1.0 | 0.00 | 0.00 | 0.00 | 78 | 997.7 |
| 20260905135732 | 87 | 94 | 0.0 | 0.0 | 0.00 | 0.00 | 0.00 | 78 | 997.5 |
| 20260905135228 | 85 | 120 | 2.0 | 2.0 | 0.00 | 0.00 | 0.00 | 80 | 997.6 |
| 20260905134727 | 84 | 110 | 1.0 | 2.0 | 0.00 | 0.00 | 0.00 | 82 | 997.6 |
| 20260905134227 | 85 | 260 | 3.0 | 3.0 | 0.00 | 0.00 | 0.00 | 81 | 997.8 |
| 20260905133722 | 84 | 4 | 1.0 | 1.0 | 0.00 | 0.00 | 0.00 | 82 | 997.9 |
| 20260905133217 | 84 | 124 | 1.0 | 1.0 | 0.00 | 0.00 | 0.00 | 82 | 997.8 |
| 20260905132716 | 84 | 106 | 1.0 | 2.0 | 0.00 | 0.00 | 0.00 | 82 | 998.0 |
| 20260905132211 | 83 | 154 | 2.0 | 2.0 | 0.00 | 0.00 | 0.00 | 83 | 997.9 |
| 20260905131706 | 84 | 171 | 2.0 | 2.0 | 0.00 | 0.00 | 0.00 | 83 | 997.8 |
| 20260905131201 | 84 | 100 | 0.0 | 0.0 | 0.00 | 0.00 | 0.00 | 83 | 997.8 |
| 20260905130656 | 83 | 106 | 0.0 | 1.0 | 0.00 | 0.00 | 0.00 | 85 | 997.7 |
| 20260905130155 | 82 | 115 | 0.0 | 0.0 | 0.00 | 0.00 | 0.00 | 86 | 998.1 |
| 20260905125650 | 81 | 115 | 1.0 | 1.0 | 0.00 | 0.00 | 0.00 | 87 | 998.1 |
| 20260905125145 | 80 | 101 | 0.0 | 1.0 | 0.00 | 0.00 | 0.00 | 88 | 998.1 |
| 20260905124641 | 80 | 104 | 0.0 | 0.0 | 0.00 | 0.00 | 0.00 | 89 | 998.0 |
| 20260905124138 | 80 | 108 | 0.0 | 0.0 | 0.00 | 0.00 | 0.00 | 88 | 997.8 |
| 20260905123632 | 80 | 111 | 0.0 | 1.0 | 0.00 | 0.00 | 0.00 | 89 | 998.0 |
| 20260905123130 | 80 | 108 | 1.0 | 1.0 | 0.00 | 0.00 | 0.00 | 89 | 997.9 |
| 20260905122629 | 79 | 109 | 0.0 | 0.0 | 0.00 | 0.00 | 0.00 | 89 | 997.9 |
| 20260905122124 | 80 | 106 | 1.0 | 1.0 | 0.00 | 0.00 | 0.00 | 89 | 998.2 |
| 20260905121619 | 80 | 95 | 0.0 | 0.0 | 0.00 | 0.00 | 0.00 | 88 | 998.1 |
| 20260905121115 | 79 | 95 | 0.0 | 0.0 | 0.00 | 0.00 | 0.00 | 89 | 998.0 |
| 20260905120614 | 78 | 96 | 0.0 | 0.0 | 0.00 | 0.00 | 0.00 | 91 | 998.1 |
| 20260905120109 | 78 | 96 | 0.0 | 0.0 | 0.00 | 0.00 | 0.00 | 93 | 998.0 |
| 20260905115607 | 76 | 96 | 0.0 | 0.0 | 0.00 | 0.00 | 0.00 | 96 | 998.0 |
| 20260905115102 | 75 | 96 | 0.0 | 1.0 | 0.00 | 0.00 | 0.00 | 98 | 997.9 |
| 20260905114602 | 75 | 96 | 0.0 | 0.0 | 0.00 | 0.00 | 0.00 | 99 | 997.9 |
| 20260905114101 | 75 | 95 | 0.0 | 0.0 | 0.00 | 0.00 | 0.00 | 99 | 997.9 |
| 20260905113556 | 74 | 96 | 0.0 | 0.0 | 0.00 | 0.00 | 0.00 | 99 | 997.8 |
| 20260905113051 | 74 | 93 | 0.0 | 0.0 | 0.00 | 0.00 | 0.00 | 99 | 997.6 |
| 20260905112546 | 74 | 92 | 0.0 | 0.0 | 0.00 | 0.00 | 0.00 | 99 | 997.5 |
| 20260905112041 | 74 | 92 | 0.0 | 0.0 | 0.00 | 0.00 | 0.00 | 99 | 997.4 |
| 20260905111537 | 74 | 93 | 0.0 | 1.0 | 0.00 | 0.00 | 0.00 | 99 | 997.3 |
| 20260905111036 | 74 | 99 | 0.0 | 0.0 | 0.00 | 0.00 | 0.00 | 99 | 997.0 |
| 20260905110535 | 74 | 103 | 0.0 | 0.0 | 0.00 | 0.00 | 0.00 | 99 | 997.0 |
| 20260905110031 | 73 | 96 | 0.0 | 0.0 | 0.00 | 0.00 | 0.00 | 99 | 996.8 |
| 20260905105530 | 74 | 95 | 0.0 | 0.0 | 0.00 | 0.00 | 0.00 | 99 | 997.0 |
| 20260905105029 | 74 | 95 | 0.0 | 0.0 | 0.00 | 0.00 | 0.00 | 99 | 996.9 |
| 20260905104526 | 74 | 95 | 0.0 | 0.0 | 0.00 | 0.00 | 0.00 | 99 | 996.6 |
| 20260905104025 | 73 | 88 | 0.0 | 0.0 | 0.00 | 0.00 | 0.00 | 99 | 996.8 |
| 20260905103520 | 74 | 88 | 0.0 | 0.0 | 0.00 | 0.00 | 0.00 | 99 | 996.6 |
| 20260905103017 | 74 | 90 | 0.0 | 0.0 | 0.00 | 0.00 | 0.00 | 99 | 996.8 |
| 20260905102512 | 74 | 87 | 0.0 | 0.0 | 0.00 | 0.00 | 0.00 | 99 | 996.6 |
| 20260905102008 | 74 | 90 | 0.0 | 0.0 | 0.00 | 0.00 | 0.00 | 99 | 996.9 |